| time (UTC) | temp F | wind direction | speed knots | gust knots | rain 1hr in | rain 24hr in | rain mn in | humidity % | barometer mb |
| 20260831225232 | 71 | 270 | 0.9 | 2.6 | 0.00 | 0.00 | 0.00 | 60 | 1009.2 |
| 20260831224726 | 72 | 338 | 3.5 | 6.1 | 0.00 | 0.00 | 0.00 | 60 | 1009.4 |
| 20260831224222 | 75 | 339 | 0.9 | 6.1 | 0.00 | 0.00 | 0.00 | 56 | 1009.3 |
| 20260831223717 | 74 | 5 | 0.0 | 0.0 | 0.00 | 0.00 | 0.00 | 58 | 1009.6 |
| 20260831223214 | 73 | 24 | 4.3 | 7.0 | 0.00 | 0.00 | 0.00 | 59 | 1009.6 |
| 20260831222709 | 73 | 9 | 6.1 | 7.8 | 0.00 | 0.00 | 0.00 | 60 | 1009.5 |
| 20260831222205 | 72 | 277 | 0.9 | 0.9 | 0.00 | 0.00 | 0.00 | 62 | 1009.7 |
| 20260831221700 | 72 | 14 | 7.8 | 11.3 | 0.00 | 0.00 | 0.00 | 61 | 1009.4 |
| 20260831221155 | 71 | 259 | 2.6 | 4.3 | 0.00 | 0.00 | 0.00 | 61 | 1009.7 |
| 20260831220650 | 71 | 17 | 2.6 | 4.3 | 0.00 | 0.00 | 0.00 | 63 | 1009.8 |
| 20260831220145 | 73 | 341 | 2.6 | 7.0 | 0.00 | 0.00 | 0.00 | 60 | 1009.5 |
| 20260831215640 | 74 | 312 | 0.0 | 0.0 | 0.00 | 0.00 | 0.00 | 60 | 1009.8 |
| 20260831215136 | 72 | 314 | 5.2 | 7.0 | 0.00 | 0.00 | 0.00 | 61 | 1010.0 |
| 20260831214633 | 71 | 351 | 5.2 | 9.6 | 0.00 | 0.00 | 0.00 | 61 | 1009.9 |
| 20260831214129 | 72 | 351 | 3.5 | 6.1 | 0.00 | 0.00 | 0.00 | 61 | 1010.1 |
| 20260831213626 | 72 | 292 | 2.6 | 4.3 | 0.00 | 0.00 | 0.00 | 60 | 1010.1 |
| 20260831213121 | 71 | 8 | 2.6 | 4.3 | 0.00 | 0.00 | 0.00 | 62 | 1010.3 |
| 20260831212617 | 70 | 290 | 6.1 | 7.8 | 0.00 | 0.00 | 0.00 | 64 | 1010.4 |
| 20260831212113 | 71 | 343 | 4.3 | 8.7 | 0.00 | 0.00 | 0.00 | 63 | 1010.1 |
| 20260831211612 | 71 | 332 | 6.1 | 7.8 | 0.00 | 0.00 | 0.00 | 62 | 1010.5 |
| 20260831211112 | 71 | 342 | 7.0 | 8.7 | 0.00 | 0.00 | 0.00 | 62 | 1010.5 |
| 20260831210607 | 71 | 291 | 1.7 | 4.3 | 0.00 | 0.00 | 0.00 | 62 | 1010.4 |
| 20260831210103 | 73 | 353 | 6.1 | 9.6 | 0.00 | 0.00 | 0.00 | 60 | 1010.7 |
| 20260831205602 | 72 | 331 | 4.3 | 6.1 | 0.00 | 0.00 | 0.00 | 61 | 1010.6 |
| 20260831205058 | 73 | 305 | 0.9 | 1.7 | 0.00 | 0.00 | 0.00 | 61 | 1010.6 |
| 20260831204553 | 71 | 299 | 3.5 | 5.2 | 0.00 | 0.00 | 0.00 | 62 | 1010.8 |
| 20260831204051 | 72 | 281 | 5.2 | 7.8 | 0.00 | 0.00 | 0.00 | 60 | 1010.8 |
| 20260831203546 | 70 | 307 | 0.9 | 0.9 | 0.00 | 0.00 | 0.00 | 64 | 1011.0 |
| 20260831203045 | 72 | 327 | 4.3 | 6.1 | 0.00 | 0.00 | 0.00 | 61 | 1010.8 |
| 20260831202544 | 71 | 277 | 1.7 | 5.2 | 0.00 | 0.00 | 0.00 | 61 | 1010.9 |
| 20260831202039 | 71 | 308 | 0.9 | 1.7 | 0.00 | 0.00 | 0.00 | 62 | 1011.1 |
| 20260831201538 | 70 | 334 | 3.5 | 5.2 | 0.00 | 0.00 | 0.00 | 64 | 1011.1 |
| 20260831201033 | 71 | 259 | 0.9 | 1.7 | 0.00 | 0.00 | 0.00 | 64 | 1011.3 |
| 20260831200529 | 70 | 266 | 4.3 | 6.1 | 0.00 | 0.00 | 0.00 | 63 | 1011.4 |
| 20260831200024 | 69 | 307 | 4.3 | 5.2 | 0.00 | 0.00 | 0.00 | 63 | 1011.3 |
| 20260831195519 | 70 | 333 | 4.3 | 7.8 | 0.00 | 0.00 | 0.00 | 62 | 1011.5 |
| 20260831195019 | 69 | 317 | 4.3 | 6.1 | 0.00 | 0.00 | 0.00 | 64 | 1011.5 |
| 20260831194509 | 70 | 314 | 1.7 | 1.7 | 0.00 | 0.00 | 0.00 | 63 | 1011.5 |
| 20260831194008 | 70 | 8 | 1.7 | 1.7 | 0.00 | 0.00 | 0.00 | 64 | 1011.8 |
| 20260831193504 | 68 | 317 | 1.7 | 1.7 | 0.00 | 0.00 | 0.00 | 68 | 1011.5 |
| 20260831192959 | 68 | 313 | 6.1 | 8.7 | 0.00 | 0.00 | 0.00 | 68 | 1011.6 |
| 20260831192454 | 69 | 316 | 6.1 | 7.8 | 0.00 | 0.00 | 0.00 | 66 | 1011.8 |
| 20260831191948 | 67 | 339 | 6.1 | 7.8 | 0.00 | 0.00 | 0.00 | 68 | 1012.0 |
| 20260831191445 | 66 | 340 | 4.3 | 7.0 | 0.00 | 0.00 | 0.00 | 70 | 1011.8 |
| 20260831190941 | 68 | 307 | 3.5 | 6.1 | 0.00 | 0.00 | 0.00 | 66 | 1012.0 |
| 20260831190436 | 68 | 316 | 1.7 | 6.1 | 0.00 | 0.00 | 0.00 | 69 | 1012.2 |
| 20260831185935 | 69 | 319 | 2.6 | 4.3 | 0.00 | 0.00 | 0.00 | 66 | 1012.2 |
| 20260831185431 | 68 | 314 | 4.3 | 6.1 | 0.00 | 0.00 | 0.00 | 68 | 1012.1 |
| 20260831184930 | 68 | 318 | 3.5 | 6.1 | 0.00 | 0.00 | 0.00 | 67 | 1012.4 |
| 20260831184425 | 69 | 318 | 5.2 | 8.7 | 0.00 | 0.00 | 0.00 | 65 | 1012.2 |
| 20260831183920 | 68 | 306 | 2.6 | 6.1 | 0.00 | 0.00 | 0.00 | 67 | 1012.4 |
| 20260831183420 | 69 | 297 | 6.1 | 7.0 | 0.00 | 0.00 | 0.00 | 68 | 1012.5 |
| 20260831182914 | 69 | 317 | 0.9 | 1.7 | 0.00 | 0.00 | 0.00 | 67 | 1012.6 |
| 20260831182409 | 68 | 282 | 2.6 | 4.3 | 0.00 | 0.00 | 0.00 | 69 | 1012.6 |
| 20260831181904 | 68 | 262 | 0.0 | 0.0 | 0.00 | 0.00 | 0.00 | 70 | 1012.6 |
| 20260831181359 | 67 | 335 | 4.3 | 6.1 | 0.00 | 0.00 | 0.00 | 71 | 1012.6 |
| 20260831180854 | 67 | 0 | 4.3 | 5.2 | 0.00 | 0.00 | 0.00 | 71 | 1012.7 |
| 20260831180348 | 66 | 283 | 2.6 | 4.3 | 0.00 | 0.00 | 0.00 | 74 | 1012.6 |
| 20260831175848 | 66 | 334 | 1.7 | 2.6 | 0.00 | 0.00 | 0.00 | 75 | 1012.8 |
| 20260831175344 | 65 | 325 | 3.5 | 4.3 | 0.00 | 0.00 | 0.00 | 75 | 1012.9 |
| 20260831174840 | 66 | 333 | 4.3 | 6.1 | 0.00 | 0.00 | 0.00 | 74 | 1013.0 |
| 20260831174336 | 65 | 308 | 0.9 | 0.9 | 0.00 | 0.00 | 0.00 | 77 | 1012.9 |
| 20260831173834 | 66 | 337 | 5.2 | 7.0 | 0.00 | 0.00 | 0.00 | 76 | 1012.9 |
| 20260831173328 | 64 | 314 | 1.7 | 2.6 | 0.00 | 0.00 | 0.00 | 78 | 1013.1 |
| 20260831172824 | 65 | 274 | 0.9 | 1.7 | 0.00 | 0.00 | 0.00 | 76 | 1013.1 |
| 20260831172319 | 66 | 308 | 2.6 | 2.6 | 0.00 | 0.00 | 0.00 | 75 | 1013.1 |
| 20260831171819 | 64 | 325 | 0.9 | 1.7 | 0.00 | 0.00 | 0.00 | 77 | 1013.2 |
| 20260831171315 | 64 | 300 | 0.0 | 0.9 | 0.00 | 0.00 | 0.00 | 77 | 1012.9 |
| 20260831170812 | 65 | 340 | 2.6 | 4.3 | 0.00 | 0.00 | 0.00 | 76 | 1013.2 |
| 20260831170308 | 65 | 316 | 3.5 | 5.2 | 0.00 | 0.00 | 0.00 | 76 | 1013.1 |
| 20260831165804 | 66 | 289 | 2.6 | 4.3 | 0.00 | 0.00 | 0.00 | 75 | 1013.3 |
| 20260831165300 | 66 | 70 | 0.9 | 1.7 | 0.00 | 0.00 | 0.00 | 73 | 1013.2 |
| 20260831164756 | 65 | 340 | 2.6 | 2.6 | 0.00 | 0.00 | 0.00 | 76 | 1013.2 |
| 20260831164252 | 64 | 328 | 1.7 | 4.3 | 0.00 | 0.00 | 0.00 | 78 | 1013.3 |
| 20260831163747 | 63 | 356 | 3.5 | 4.3 | 0.00 | 0.00 | 0.00 | 78 | 1013.1 |
| 20260831163243 | 65 | 290 | 2.6 | 4.3 | 0.00 | 0.00 | 0.00 | 76 | 1013.3 |
| 20260831162741 | 65 | 305 | 0.9 | 0.9 | 0.00 | 0.00 | 0.00 | 76 | 1013.5 |
| 20260831162236 | 65 | 321 | 0.0 | 0.0 | 0.00 | 0.00 | 0.00 | 75 | 1013.5 |
| 20260831161730 | 64 | 17 | 3.5 | 4.3 | 0.00 | 0.00 | 0.00 | 75 | 1013.4 |
| 20260831161227 | 64 | 353 | 4.3 | 5.2 | 0.00 | 0.00 | 0.00 | 74 | 1013.7 |
| 20260831160726 | 65 | 21 | 0.9 | 0.9 | 0.00 | 0.00 | 0.00 | 75 | 1013.7 |
| 20260831160221 | 64 | 76 | 1.7 | 2.6 | 0.00 | 0.00 | 0.00 | 76 | 1013.7 |
| 20260831155721 | 64 | 11 | 0.9 | 0.9 | 0.00 | 0.00 | 0.00 | 77 | 1013.5 |
| 20260831155217 | 64 | 318 | 0.9 | 1.7 | 0.00 | 0.00 | 0.00 | 77 | 1013.9 |
| 20260831154713 | 63 | 37 | 2.6 | 4.3 | 0.00 | 0.00 | 0.00 | 78 | 1014.0 |
| 20260831154209 | 63 | 14 | 3.5 | 4.3 | 0.00 | 0.00 | 0.00 | 77 | 1014.1 |
| 20260831153707 | 63 | 319 | 1.7 | 2.6 | 0.00 | 0.00 | 0.00 | 78 | 1014.1 |
| 20260831153203 | 62 | 7 | 3.5 | 4.3 | 0.00 | 0.00 | 0.00 | 79 | 1014.1 |
| 20260831152659 | 62 | 20 | 2.6 | 5.2 | 0.00 | 0.00 | 0.00 | 80 | 1014.0 |
| 20260831152155 | 62 | 11 | 4.3 | 6.1 | 0.00 | 0.00 | 0.00 | 80 | 1014.0 |
| 20260831151654 | 62 | 356 | 2.6 | 5.2 | 0.00 | 0.00 | 0.00 | 80 | 1014.0 |
| 20260831151149 | 61 | 5 | 3.5 | 4.3 | 0.00 | 0.00 | 0.00 | 81 | 1014.1 |
| 20260831150644 | 61 | 1 | 1.7 | 1.7 | 0.00 | 0.00 | 0.00 | 83 | 1014.0 |
| 20260831150139 | 60 | 1 | 0.0 | 0.0 | 0.00 | 0.00 | 0.00 | 84 | 1013.9 |
| 20260831145633 | 60 | 6 | 2.6 | 2.6 | 0.00 | 0.00 | 0.00 | 85 | 1014.3 |
| 20260831145129 | 59 | 338 | 0.9 | 0.9 | 0.00 | 0.00 | 0.00 | 86 | 1014.0 |
| 20260831144625 | 59 | 9 | 2.6 | 4.3 | 0.00 | 0.00 | 0.00 | 86 | 1014.1 |
| 20260831144121 | 59 | 19 | 0.0 | 0.9 | 0.00 | 0.00 | 0.00 | 87 | 1014.1 |
| 20260831143620 | 58 | 5 | 0.9 | 0.9 | 0.00 | 0.00 | 0.00 | 88 | 1014.2 |
| 20260831143115 | 58 | 9 | 2.6 | 2.6 | 0.00 | 0.00 | 0.00 | 88 | 1014.1 |
| 20260831142612 | 58 | 324 | 0.0 | 0.0 | 0.00 | 0.00 | 0.00 | 90 | 1014.2 |
| 20260831142107 | 58 | 328 | 0.0 | 0.0 | 0.00 | 0.00 | 0.00 | 90 | 1014.1 |
| 20260831141605 | 57 | 356 | 0.9 | 1.7 | 0.00 | 0.00 | 0.00 | 91 | 1014.2 |
| 20260831141101 | 57 | 330 | 0.0 | 0.9 | 0.00 | 0.00 | 0.00 | 92 | 1014.1 |
| 20260831140600 | 57 | 334 | 0.0 | 0.0 | 0.00 | 0.00 | 0.00 | 92 | 1014.1 |
| 20260831140055 | 56 | 344 | 2.6 | 2.6 | 0.00 | 0.00 | 0.00 | 92 | 1014.1 |
| 20260831135553 | 56 | 331 | 0.0 | 0.0 | 0.00 | 0.00 | 0.00 | 92 | 1014.0 |
| 20260831135049 | 56 | 328 | 0.0 | 0.0 | 0.00 | 0.00 | 0.00 | 92 | 1014.1 |
| 20260831134544 | 56 | 341 | 0.0 | 0.0 | 0.00 | 0.00 | 0.00 | 92 | 1014.1 |
| 20260831134039 | 56 | 327 | 0.0 | 0.9 | 0.00 | 0.00 | 0.00 | 92 | 1013.7 |
| 20260831133538 | 56 | 3 | 0.9 | 1.7 | 0.00 | 0.00 | 0.00 | 92 | 1014.0 |
| 20260831133033 | 56 | 322 | 0.0 | 0.0 | 0.00 | 0.00 | 0.00 | 92 | 1014.0 |
| 20260831132530 | 56 | 314 | 0.0 | 0.0 | 0.00 | 0.00 | 0.00 | 92 | 1013.9 |
| 20260831132028 | 56 | 328 | 0.0 | 0.0 | 0.00 | 0.00 | 0.00 | 92 | 1014.0 |
| 20260831131523 | 56 | 341 | 0.9 | 0.9 | 0.00 | 0.00 | 0.00 | 92 | 1014.0 |
| 20260831131019 | 56 | 5 | 0.9 | 0.9 | 0.00 | 0.00 | 0.00 | 92 | 1014.1 |
| 20260831130514 | 56 | 338 | 0.0 | 0.9 | 0.00 | 0.00 | 0.00 | 92 | 1014.0 |
| 20260831130010 | 56 | 344 | 2.6 | 4.3 | 0.00 | 0.00 | 0.00 | 92 | 1014.2 |
| 20260831125503 | 56 | 343 | 0.9 | 1.7 | 0.00 | 0.00 | 0.00 | 93 | 1014.2 |
| 20260831124959 | 56 | 344 | 1.7 | 1.7 | 0.00 | 0.00 | 0.00 | 93 | 1014.1 |
| 20260831124454 | 56 | 332 | 0.9 | 0.9 | 0.00 | 0.00 | 0.00 | 93 | 1014.0 |
| 20260831123950 | 56 | 321 | 0.0 | 0.0 | 0.00 | 0.00 | 0.00 | 93 | 1014.3 |
| 20260831123449 | 56 | 4 | 1.7 | 1.7 | 0.00 | 0.00 | 0.00 | 93 | 1014.2 |
| 20260831122943 | 56 | 323 | 0.0 | 0.0 | 0.00 | 0.00 | 0.00 | 93 | 1014.2 |
| 20260831122439 | 56 | 333 | 0.9 | 0.9 | 0.00 | 0.00 | 0.00 | 93 | 1014.3 |
| 20260831121934 | 57 | 331 | 1.7 | 1.7 | 0.00 | 0.00 | 0.00 | 93 | 1014.2 |
| 20260831121430 | 57 | 325 | 0.9 | 0.9 | 0.00 | 0.00 | 0.00 | 93 | 1014.6 |
| 20260831120925 | 57 | 355 | 0.9 | 1.7 | 0.00 | 0.00 | 0.00 | 93 | 1014.5 |
| 20260831120420 | 57 | 342 | 2.6 | 2.6 | 0.00 | 0.00 | 0.00 | 92 | 1014.4 |
| 20260831115920 | 57 | 328 | 0.0 | 0.0 | 0.00 | 0.00 | 0.00 | 92 | 1014.3 |
| 20260831115416 | 57 | 15 | 2.6 | 2.6 | 0.00 | 0.00 | 0.00 | 92 | 1014.4 |
| 20260831114915 | 57 | 4 | 2.6 | 2.6 | 0.00 | 0.00 | 0.00 | 92 | 1014.6 |
| 20260831114414 | 57 | 30 | 2.6 | 4.3 | 0.00 | 0.00 | 0.00 | 92 | 1014.5 |
| 20260831113911 | 57 | 9 | 4.3 | 6.1 | 0.00 | 0.00 | 0.00 | 92 | 1014.7 |
| 20260831113410 | 57 | 320 | 0.9 | 0.9 | 0.00 | 0.00 | 0.00 | 92 | 1014.8 |
| 20260831112905 | 57 | 348 | 1.7 | 1.7 | 0.00 | 0.00 | 0.00 | 92 | 1014.8 |
| 20260831112400 | 57 | 358 | 4.3 | 6.1 | 0.00 | 0.00 | 0.00 | 92 | 1014.7 |
| 20260831111855 | 57 | 14 | 1.7 | 2.6 | 0.00 | 0.00 | 0.00 | 91 | 1014.7 |
| 20260831111351 | 57 | 337 | 0.9 | 1.7 | 0.00 | 0.00 | 0.00 | 91 | 1014.8 |
| 20260831110847 | 57 | 3 | 0.9 | 1.7 | 0.00 | 0.00 | 0.00 | 91 | 1015.0 |
| 20260831110346 | 57 | 6 | 0.9 | 1.7 | 0.00 | 0.00 | 0.00 | 91 | 1014.9 |
| 20260831105845 | 57 | 333 | 1.7 | 1.7 | 0.00 | 0.00 | 0.00 | 91 | 1014.8 |
| 20260831105341 | 57 | 355 | 0.9 | 2.6 | 0.00 | 0.00 | 0.00 | 91 | 1015.0 |
| 20260831104837 | 57 | 326 | 0.0 | 0.0 | 0.00 | 0.00 | 0.00 | 90 | 1015.0 |
| 20260831104333 | 57 | 358 | 3.5 | 4.3 | 0.00 | 0.00 | 0.00 | 91 | 1015.0 |
| 20260831103832 | 57 | 24 | 1.7 | 1.7 | 0.00 | 0.00 | 0.00 | 90 | 1014.9 |
| 20260831103328 | 57 | 336 | 0.0 | 0.0 | 0.00 | 0.00 | 0.00 | 90 | 1015.2 |
| 20260831102823 | 57 | 340 | 0.0 | 0.0 | 0.00 | 0.00 | 0.00 | 90 | 1015.0 |
| 20260831102318 | 57 | 346 | 0.0 | 0.0 | 0.00 | 0.00 | 0.00 | 90 | 1015.1 |
| 20260831101814 | 57 | 330 | 0.0 | 0.0 | 0.00 | 0.00 | 0.00 | 90 | 1014.8 |
| 20260831101309 | 57 | 1 | 0.0 | 0.0 | 0.00 | 0.00 | 0.00 | 90 | 1015.3 |
| 20260831100805 | 57 | 336 | 0.0 | 0.9 | 0.00 | 0.00 | 0.00 | 90 | 1015.6 |
| 20260831100301 | 57 | 329 | 0.9 | 0.9 | 0.00 | 0.00 | 0.00 | 89 | 1015.5 |
| 20260831095800 | 57 | 333 | 0.0 | 0.0 | 0.00 | 0.00 | 0.00 | 89 | 1015.6 |
| 20260831095254 | 57 | 337 | 0.0 | 0.0 | 0.00 | 0.00 | 0.00 | 89 | 1015.6 |
| 20260831094749 | 57 | 337 | 0.0 | 0.0 | 0.00 | 0.00 | 0.00 | 88 | 1015.5 |
| 20260831094244 | 57 | 342 | 0.9 | 1.7 | 0.00 | 0.00 | 0.00 | 88 | 1015.6 |
| 20260831093741 | 57 | 1 | 3.5 | 4.3 | 0.00 | 0.00 | 0.00 | 88 | 1015.5 |
| 20260831093240 | 57 | 5 | 0.9 | 1.7 | 0.00 | 0.00 | 0.00 | 88 | 1015.8 |
| 20260831092737 | 57 | 328 | 0.0 | 0.9 | 0.00 | 0.00 | 0.00 | 88 | 1015.9 |
| 20260831092233 | 57 | 323 | 0.9 | 1.7 | 0.00 | 0.00 | 0.00 | 88 | 1015.9 |
| 20260831091732 | 57 | 322 | 0.9 | 1.7 | 0.00 | 0.00 | 0.00 | 87 | 1015.8 |
| 20260831091228 | 57 | 305 | 0.0 | 0.0 | 0.00 | 0.00 | 0.00 | 87 | 1016.1 |
| 20260831090723 | 57 | 304 | 0.0 | 0.0 | 0.00 | 0.00 | 0.00 | 86 | 1015.9 |
| 20260831090220 | 57 | 305 | 0.0 | 0.0 | 0.00 | 0.00 | 0.00 | 86 | 1016.0 |
| 20260831085715 | 57 | 322 | 0.0 | 0.0 | 0.00 | 0.00 | 0.00 | 86 | 1015.8 |
| 20260831085210 | 58 | 321 | 0.0 | 0.0 | 0.00 | 0.00 | 0.00 | 85 | 1016.0 |
| 20260831084705 | 58 | 320 | 0.0 | 0.0 | 0.00 | 0.00 | 0.00 | 85 | 1016.0 |
| 20260831084201 | 57 | 321 | 0.0 | 0.9 | 0.00 | 0.00 | 0.00 | 85 | 1015.9 |
| 20260831083657 | 57 | 321 | 0.0 | 0.0 | 0.00 | 0.00 | 0.00 | 84 | 1015.8 |
| 20260831083152 | 57 | 322 | 0.0 | 0.0 | 0.00 | 0.00 | 0.00 | 84 | 1015.8 |
| 20260831082650 | 58 | 322 | 0.0 | 0.0 | 0.00 | 0.00 | 0.00 | 83 | 1016.3 |
| 20260831082146 | 58 | 342 | 0.0 | 0.0 | 0.00 | 0.00 | 0.00 | 83 | 1016.3 |
| 20260831081641 | 58 | 320 | 0.0 | 0.0 | 0.00 | 0.00 | 0.00 | 83 | 1016.3 |
| 20260831081137 | 58 | 322 | 0.0 | 0.0 | 0.00 | 0.00 | 0.00 | 83 | 1016.3 |
| 20260831080633 | 58 | 320 | 0.0 | 0.0 | 0.00 | 0.00 | 0.00 | 83 | 1016.6 |
| 20260831080127 | 58 | 331 | 0.0 | 0.0 | 0.00 | 0.00 | 0.00 | 83 | 1016.4 |
| 20260831075624 | 57 | 306 | 0.0 | 0.0 | 0.00 | 0.00 | 0.00 | 83 | 1016.6 |
| 20260831075119 | 57 | 306 | 0.0 | 0.0 | 0.00 | 0.00 | 0.00 | 83 | 1016.6 |
| 20260831074618 | 58 | 306 | 0.0 | 0.0 | 0.00 | 0.00 | 0.00 | 83 | 1016.4 |
| 20260831074113 | 58 | 306 | 0.0 | 0.0 | 0.00 | 0.00 | 0.00 | 82 | 1016.4 |
| 20260831073608 | 58 | 306 | 0.0 | 0.0 | 0.00 | 0.00 | 0.00 | 82 | 1016.3 |
| 20260831073107 | 58 | 306 | 0.0 | 0.9 | 0.00 | 0.00 | 0.00 | 82 | 1016.2 |
| 20260831072602 | 58 | 306 | 0.0 | 0.9 | 0.00 | 0.00 | 0.00 | 82 | 1016.4 |
| 20260831072059 | 58 | 307 | 0.0 | 0.0 | 0.00 | 0.00 | 0.00 | 81 | 1016.5 |
| 20260831071557 | 58 | 307 | 0.0 | 0.0 | 0.00 | 0.00 | 0.00 | 82 | 1016.5 |
| 20260831071053 | 59 | 307 | 0.0 | 0.0 | 0.00 | 0.00 | 0.00 | 81 | 1016.6 |
| 20260831070552 | 59 | 307 | 0.0 | 0.0 | 0.00 | 0.00 | 0.00 | 81 | 1016.8 |
| 20260831070047 | 59 | 308 | 0.0 | 0.0 | 0.00 | 0.00 | 0.00 | 81 | 1016.8 |
| 20260831065544 | 59 | 309 | 0.0 | 0.0 | 0.00 | 0.00 | 0.00 | 81 | 1016.9 |
| 20260831065039 | 59 | 310 | 0.0 | 0.0 | 0.00 | 0.00 | 0.00 | 81 | 1016.9 |
| 20260831064534 | 59 | 301 | 0.0 | 0.0 | 0.00 | 0.00 | 0.00 | 81 | 1016.8 |
| 20260831064030 | 59 | 300 | 0.0 | 0.0 | 0.00 | 0.00 | 0.00 | 80 | 1016.7 |
| 20260831063525 | 59 | 296 | 0.0 | 0.0 | 0.00 | 0.00 | 0.00 | 80 | 1016.8 |
| 20260831063020 | 60 | 281 | 0.0 | 0.0 | 0.00 | 0.00 | 0.00 | 79 | 1017.0 |
| 20260831062515 | 59 | 299 | 0.0 | 0.0 | 0.00 | 0.00 | 0.00 | 80 | 1016.8 |
| 20260831062014 | 59 | 270 | 0.9 | 0.9 | 0.00 | 0.00 | 0.00 | 80 | 1017.1 |
| 20260831061512 | 59 | 293 | 0.0 | 0.0 | 0.00 | 0.00 | 0.00 | 79 | 1016.7 |
| 20260831061009 | 60 | 287 | 0.0 | 0.0 | 0.00 | 0.00 | 0.00 | 79 | 1017.0 |
| 20260831060508 | 60 | 312 | 0.0 | 0.0 | 0.00 | 0.00 | 0.00 | 78 | 1016.9 |
| 20260831060004 | 60 | 316 | 0.0 | 0.0 | 0.00 | 0.00 | 0.00 | 78 | 1017.1 |
| 20260831055458 | 60 | 325 | 0.0 | 0.0 | 0.00 | 0.00 | 0.00 | 78 | 1016.9 |
| 20260831054954 | 60 | 317 | 0.0 | 0.0 | 0.00 | 0.00 | 0.00 | 77 | 1017.1 |
| 20260831054453 | 60 | 314 | 0.9 | 0.9 | 0.00 | 0.00 | 0.00 | 77 | 1017.1 |
| 20260831053953 | 60 | 338 | 0.0 | 0.0 | 0.00 | 0.00 | 0.00 | 77 | 1017.1 |
| 20260831053451 | 61 | 330 | 0.0 | 0.0 | 0.00 | 0.00 | 0.00 | 77 | 1017.2 |
| 20260831052946 | 60 | 318 | 2.6 | 2.6 | 0.00 | 0.00 | 0.00 | 77 | 1017.4 |
| 20260831052445 | 60 | 322 | 0.0 | 0.0 | 0.00 | 0.00 | 0.00 | 78 | 1017.5 |
| 20260831051944 | 60 | 344 | 0.9 | 0.9 | 0.00 | 0.00 | 0.00 | 78 | 1017.5 |
| 20260831051443 | 60 | 306 | 0.0 | 0.0 | 0.00 | 0.00 | 0.00 | 78 | 1017.8 |
| 20260831050937 | 60 | 320 | 0.0 | 0.0 | 0.00 | 0.00 | 0.00 | 78 | 1017.5 |
| 20260831050437 | 60 | 302 | 0.0 | 0.0 | 0.00 | 0.00 | 0.00 | 78 | 1017.7 |
| 20260831045936 | 60 | 284 | 0.0 | 0.0 | 0.00 | 0.00 | 0.00 | 77 | 1017.7 |
| 20260831045435 | 60 | 301 | 0.0 | 0.0 | 0.00 | 0.00 | 0.00 | 76 | 1017.5 |
| 20260831044930 | 61 | 300 | 0.0 | 0.0 | 0.00 | 0.00 | 0.00 | 76 | 1017.6 |
| 20260831044425 | 61 | 307 | 0.0 | 0.0 | 0.00 | 0.00 | 0.00 | 76 | 1017.7 |
| 20260831043921 | 61 | 341 | 0.0 | 0.0 | 0.00 | 0.00 | 0.00 | 76 | 1017.9 |
| 20260831043421 | 61 | 285 | 0.0 | 0.0 | 0.00 | 0.00 | 0.00 | 75 | 1017.8 |
| 20260831042916 | 61 | 318 | 0.0 | 0.0 | 0.00 | 0.00 | 0.00 | 75 | 1017.6 |
| 20260831042416 | 61 | 344 | 0.0 | 0.0 | 0.00 | 0.00 | 0.00 | 75 | 1017.7 |
| 20260831041911 | 61 | 325 | 0.9 | 0.9 | 0.00 | 0.00 | 0.00 | 75 | 1017.6 |
| 20260831041410 | 62 | 315 | 0.0 | 0.0 | 0.00 | 0.00 | 0.00 | 74 | 1017.7 |
| 20260831040905 | 62 | 351 | 0.9 | 1.7 | 0.00 | 0.00 | 0.00 | 74 | 1017.7 |
| 20260831040400 | 62 | 357 | 5.2 | 6.1 | 0.00 | 0.00 | 0.00 | 74 | 1017.6 |
| 20260831035858 | 62 | 345 | 0.9 | 0.9 | 0.00 | 0.00 | 0.00 | 74 | 1017.4 |
| 20260831035357 | 62 | 24 | 2.6 | 2.6 | 0.00 | 0.00 | 0.00 | 74 | 1017.7 |
| 20260831034851 | 62 | 350 | 0.0 | 0.0 | 0.00 | 0.00 | 0.00 | 74 | 1017.6 |
| 20260831034347 | 62 | 359 | 3.5 | 5.2 | 0.00 | 0.00 | 0.00 | 73 | 1017.5 |
| 20260831033842 | 62 | 15 | 4.3 | 5.2 | 0.00 | 0.00 | 0.00 | 73 | 1017.5 |
| 20260831033343 | 62 | 345 | 5.2 | 7.0 | 0.00 | 0.00 | 0.00 | 73 | 1017.7 |
| 20260831032838 | 62 | 11 | 5.2 | 6.1 | 0.00 | 0.00 | 0.00 | 72 | 1017.4 |
| 20260831032332 | 62 | 328 | 6.1 | 7.8 | 0.00 | 0.00 | 0.00 | 72 | 1017.4 |
| 20260831031827 | 62 | 7 | 5.2 | 6.1 | 0.00 | 0.00 | 0.00 | 72 | 1017.7 |
| 20260831031326 | 62 | 10 | 7.0 | 7.8 | 0.00 | 0.00 | 0.00 | 72 | 1017.9 |
| 20260831030821 | 62 | 345 | 3.5 | 5.2 | 0.00 | 0.00 | 0.00 | 71 | 1017.6 |
| 20260831030319 | 62 | 20 | 7.8 | 8.7 | 0.00 | 0.00 | 0.00 | 71 | 1017.4 |
| 20260831025814 | 63 | 350 | 0.0 | 0.0 | 0.00 | 0.00 | 0.00 | 70 | 1017.4 |
| 20260831025308 | 63 | 15 | 4.3 | 7.0 | 0.00 | 0.00 | 0.00 | 70 | 1017.6 |
| 20260831024804 | 63 | 32 | 4.3 | 6.1 | 0.00 | 0.00 | 0.00 | 70 | 1017.7 |
| 20260831024303 | 63 | 358 | 4.3 | 6.1 | 0.00 | 0.00 | 0.00 | 69 | 1017.6 |
| 20260831023802 | 64 | 345 | 4.3 | 6.1 | 0.00 | 0.00 | 0.00 | 68 | 1017.7 |
| 20260831023300 | 64 | 341 | 6.1 | 8.7 | 0.00 | 0.00 | 0.00 | 67 | 1017.4 |
| 20260831022756 | 64 | 317 | 0.0 | 0.0 | 0.00 | 0.00 | 0.00 | 66 | 1017.4 |
| 20260831022255 | 65 | 327 | 3.5 | 4.3 | 0.00 | 0.00 | 0.00 | 65 | 1017.5 |
| 20260831021750 | 65 | 5 | 2.6 | 5.2 | 0.00 | 0.00 | 0.00 | 64 | 1017.6 |
| 20260831021249 | 66 | 324 | 0.9 | 2.6 | 0.00 | 0.00 | 0.00 | 62 | 1017.8 |
| 20260831020746 | 67 | 326 | 0.0 | 0.0 | 0.00 | 0.00 | 0.00 | 61 | 1017.8 |
| 20260831020245 | 67 | 345 | 0.0 | 0.0 | 0.00 | 0.00 | 0.00 | 60 | 1017.7 |
| 20260831015741 | 67 | 319 | 0.0 | 0.0 | 0.00 | 0.00 | 0.00 | 59 | 1017.8 |
| 20260831015236 | 67 | 315 | 0.0 | 0.0 | 0.00 | 0.00 | 0.00 | 58 | 1017.6 |
| 20260831014731 | 68 | 337 | 2.6 | 2.6 | 0.00 | 0.00 | 0.00 | 58 | 1017.7 |
| 20260831014226 | 68 | 333 | 0.9 | 1.7 | 0.00 | 0.00 | 0.00 | 58 | 1017.8 |
| 20260831013722 | 68 | 346 | 0.9 | 2.6 | 0.00 | 0.00 | 0.00 | 58 | 1017.9 |
| 20260831013221 | 68 | 314 | 1.7 | 1.7 | 0.00 | 0.00 | 0.00 | 58 | 1017.8 |
| 20260831012716 | 68 | 328 | 3.5 | 4.3 | 0.00 | 0.00 | 0.00 | 57 | 1017.8 |
| 20260831012212 | 68 | 359 | 3.5 | 4.3 | 0.00 | 0.00 | 0.00 | 57 | 1018.0 |
| 20260831011710 | 69 | 355 | 3.5 | 5.2 | 0.00 | 0.00 | 0.00 | 56 | 1018.1 |
| 20260831011207 | 69 | 18 | 0.0 | 0.9 | 0.00 | 0.00 | 0.00 | 57 | 1018.2 |
| 20260831010702 | 69 | 306 | 0.0 | 0.0 | 0.00 | 0.00 | 0.00 | 57 | 1018.0 |
| 20260831010157 | 69 | 345 | 0.0 | 0.0 | 0.00 | 0.00 | 0.00 | 56 | 1018.1 |
| 20260831005657 | 69 | 306 | 0.9 | 1.7 | 0.00 | 0.00 | 0.00 | 56 | 1018.4 |
| 20260831005153 | 69 | 296 | 0.0 | 0.0 | 0.00 | 0.00 | 0.00 | 55 | 1018.2 |
| 20260831004648 | 69 | 249 | 1.7 | 1.7 | 0.00 | 0.00 | 0.00 | 54 | 1018.2 |
| 20260831004144 | 69 | 306 | 0.0 | 0.0 | 0.00 | 0.00 | 0.00 | 55 | 1018.3 |
| 20260831003640 | 69 | 307 | 0.0 | 0.9 | 0.00 | 0.00 | 0.00 | 54 | 1018.4 |
| 20260831003136 | 70 | 294 | 2.6 | 4.3 | 0.00 | 0.00 | 0.00 | 54 | 1018.6 |
| 20260831002634 | 69 | 256 | 0.0 | 0.0 | 0.00 | 0.00 | 0.00 | 55 | 1018.4 |
| 20260831002129 | 69 | 315 | 2.6 | 4.3 | 0.00 | 0.00 | 0.00 | 54 | 1018.4 |
| 20260831001625 | 70 | 297 | 1.7 | 1.7 | 0.00 | 0.00 | 0.00 | 53 | 1018.4 |
| 20260831001120 | 70 | 324 | 0.0 | 1.7 | 0.00 | 0.00 | 0.00 | 53 | 1018.5 |
| 20260831000618 | 70 | 273 | 0.0 | 0.0 | 0.00 | 0.00 | 0.00 | 55 | 1018.3 |
| 20260831000117 | 70 | 286 | 1.7 | 1.7 | 0.00 | 0.00 | 0.00 | 54 | 1018.4 |
| 20260830235616 | 72 | 328 | 0.9 | 1.7 | 0.00 | 0.00 | 0.00 | 53 | 1018.2 |
| 20260830235111 | 72 | 315 | 3.5 | 5.2 | 0.00 | 0.00 | 0.00 | 53 | 1018.4 |
| 20260830234606 | 72 | 293 | 3.5 | 4.3 | 0.00 | 0.00 | 0.00 | 52 | 1018.5 |
| 20260830234101 | 72 | 308 | 2.6 | 2.6 | 0.00 | 0.00 | 0.00 | 53 | 1018.6 |
| 20260830233556 | 74 | 276 | 4.3 | 6.1 | 0.00 | 0.00 | 0.00 | 51 | 1018.7 |
| 20260830233052 | 73 | 201 | 4.3 | 5.2 | 0.00 | 0.00 | 0.00 | 51 | 1018.6 |
| 20260830232548 | 74 | 294 | 0.0 | 0.9 | 0.00 | 0.00 | 0.00 | 52 | 1018.7 |
| 20260830232043 | 72 | 77 | 1.7 | 1.7 | 0.00 | 0.00 | 0.00 | 53 | 1018.7 |
| 20260830231539 | 71 | 333 | 0.9 | 0.9 | 0.00 | 0.00 | 0.00 | 55 | 1018.5 |
| 20260830231038 | 70 | 206 | 0.0 | 0.0 | 0.00 | 0.00 | 0.00 | 56 | 1018.5 |
| 20260830230534 | 69 | 175 | 1.7 | 1.7 | 0.00 | 0.00 | 0.00 | 58 | 1018.6 |
| 20260830230029 | 70 | 238 | 0.9 | 1.7 | 0.00 | 0.00 | 0.00 | 57 | 1018.6 |
| 20260830225524 | 71 | 256 | 0.0 | 0.9 | 0.00 | 0.00 | 0.00 | 54 | 1018.7 |